User: anonymous   Login
Location: Unspecified
(0.0000°N, 0.0000°E)
Time: 09:29:29
(UTC+00:00)
Language:

Italsat 1 - Orbit

View from above orbital plane
View from above orbital plane
View from above satellite
View from above satellite

Ground track
Ground track

The orbit data is extracted from the following two-line orbital elements,

1 21055U 91003A   18017.18984866 +.00000027 +00000-0 +00000-0 0  9992
2 21055 014.7636 017.6183 0016841 313.6456 228.7567 00.99971174086363
Epoch (UTC): 17 January 2018 04:33:22
Eccentricity: 0.0016841
inclination: 14.7636°
perigee height: 35799 km
apogee height: 35942 km
right ascension of ascending node: 17.6183°
argument of perigee: 313.6456°
revolutions per day: 0.99971174
mean anomaly at epoch: 228.7567°
orbit number at epoch: 8636

The dashed part of the orbit path shows where the satellite is in the earth's shadow,  

DLR